User: anonymous   Login
Location: Strohbehn Observatory
(42.4649°N, 93.8239°W)
Time: 06:23:41
(UTC-06:00)
Language:

SL-16 R/B - Orbit

View from above orbital plane
View from above orbital plane
View from above satellite
View from above satellite

Ground track
Ground track

The orbit data is extracted from the following two-line orbital elements,

1 31793U 07029B   15024.65879672 -.00000072  00000-0 -12827-4 0  1754
2 31793 070.9770 066.0142 0002575 289.9602 205.9273 14.14314529391060
Epoch (UTC): 24 January 2015 15:48:40
Eccentricity: 0.0002575
inclination: 70.9770°
perigee height: 843 km
apogee height: 846 km
right ascension of ascending node: 66.0142°
argument of perigee: 289.9602°
revolutions per day: 14.14314529
mean anomaly at epoch: 205.9273°
orbit number at epoch: 39106

The dashed part of the orbit path shows where the satellite is in the earth's shadow,  

DLR